#timestamp,LO_Frequency,Hit,StdDev 
1545537615.5,286047002.5,N
1545537635.3,286046999.9,N
1545537655.1,286047000.1,N
1545537675.9,286047002.3,N
1545537695.7,286047004.0,N
1545537715.5,286047002.0,N
1545537735.4,286046999.7,N
1545537755.2,286046999.7,N
1545537775.0,286046999.8,N
1545537776.0,286046999.8,N
1545537795.8,286047002.3,N
1545537815.6,286047002.4,N
1545537835.5,286047002.0,N
1545537855.3,286047002.8,N
1545537875.1,286047002.6,N
1545537895.9,286047002.0,N
1545537915.7,286047001.6,N
1545537935.5,286047002.5,N
1545537955.4,286047002.1,N
1545537975.2,286047002.1,N
1545537995.1,286047002.5,N
1545537996.0,286047002.5,N
1545538015.8,286047002.5,N
1545538035.6,286047002.6,N
1545538055.5,286047002.0,N
1545538075.3,286047000.3,N
1545538095.1,286046998.2,N
1545538115.9,286047001.0,N
1545538135.7,286046999.9,N
1545538155.6,286047001.0,N
1545538175.4,286047000.4,N
1545538195.2,286046999.8,N
1545538215.1,286047000.0,N
1545538216.0,286047000.0,N
1545538235.8,286047000.1,N
1545538255.6,286047000.0,N
1545538275.5,286046998.1,N
1545538295.3,286047001.0,N
1545538315.2,286047001.2,N
1545538335.9,286046998.8,N
1545538355.7,286046998.9,N
1545538375.6,286046998.9,N
1545538395.4,286047000.5,N
1545538415.2,286047001.0,N
1545538435.1,286047000.4,N
1545538436.0,286047000.4,N
1545538455.8,286047002.3,N
1545538475.7,286046999.9,N
1545538495.5,286046999.8,N
1545538515.3,286047001.9,N
1545538535.2,286047001.7,N
1545538555.0,286046999.9,N
1545538555.9,286046999.9,N
1545538575.7,286047002.8,N
1545538595.6,286047000.3,N
1545538615.4,286047000.6,N
1545538635.3,286047002.7,N
1545538655.1,286047001.8,N
1545538656.0,286047001.8,N
1545538675.8,286047004.4,Y
1545538695.7,286047001.9,P
1545538715.5,286047002.7,P
1545538735.3,286046999.7,N
1545538755.2,286047000.9,N
1545538775.0,286047000.0,N
1545538775.9,286047000.0,N
1545538795.8,286047000.6,N
1545538815.6,286046999.7,N
1545538835.4,286047000.2,N
1545538855.3,286047000.3,N
1545538875.1,286047000.0,N
1545538895.9,286047002.7,Y
1545538915.7,286047002.3,P
1545538935.5,286047002.4,N
1545538955.4,286047002.8,P
1545538975.2,286047002.3,N
1545538995.0,286047001.9,N
1545538995.9,286047001.9,N
1545539015.8,286047001.5,N
1545539035.6,286047001.6,N
1545539055.5,286047002.5,Y
1545539075.3,286047000.9,P
1545539095.1,286047002.5,P
1545539115.9,286047000.0,N
1545539135.7,286047000.4,N
1545539155.5,286046999.7,N
1545539175.4,286047000.0,N
1545539195.2,286047000.1,N
1545539215.1,286047000.7,N
1545539216.0,286047000.7,N
1545539235.8,286046998.4,N
1545539255.6,286046998.7,N
1545539275.5,286046998.9,N
1545539295.3,286046998.9,N
1545539315.1,286046996.7,N
1545539335.9,286046997.1,N
1545539355.7,286046997.4,N
1545539375.6,286046996.6,N
1545539395.4,286046998.9,N
1545539415.2,286046998.7,N
1545539435.1,286046999.7,N
1545539436.0,286046999.7,N
1545539455.8,286046998.3,N
1545539475.6,286046998.2,N
1545539495.5,286046998.4,N
1545539515.3,286047000.5,N
1545539535.1,286046998.2,N
1545539555.9,286046998.4,N
1545539575.7,286046999.4,N
1545539595.6,286046999.2,N
1545539615.4,286046999.4,N
1545539635.2,286046994.9,Y
1545539655.1,286046998.2,P
1545539656.0,286046998.2,P
1545539675.8,286046999.5,N
1545539695.7,286046996.6,Y
1545539715.5,286047000.5,P
1545539735.3,286047000.5,N
1545539755.2,286047000.3,N
1545539775.0,286046999.8,N
1545539775.9,286046999.8,N
1545539795.7,286046999.8,N
1545539815.6,286047000.3,N
1545539835.4,286047000.4,N
1545539855.3,286047000.3,N
1545539875.1,286047000.2,N
1545539876.0,286047000.2,N
1545539895.8,286046998.1,Y
1545539915.7,286046997.0,P
1545539935.5,286046996.7,N
1545539955.4,286046996.5,N
1545539975.2,286046996.9,N
1545539995.0,286046999.3,N
1545539995.9,286046999.3,N
1545540015.8,286046999.4,N
1545540035.6,286046998.4,N
1545540055.4,286047000.6,N
1545540075.3,286047000.3,N
1545540095.1,286047000.9,N
1545540115.9,286047001.0,N
1545540135.7,286047000.8,N
1545540155.5,286047000.4,N
1545540175.4,286047000.3,N
1545540195.2,286047001.1,N
1545540215.1,286046998.8,N
1545540216.0,286046998.8,N
1545540235.8,286046996.6,N
1545540255.6,286046998.2,N
1545540275.5,286047000.8,N
1545540295.3,286046998.2,N
1545540315.2,286047000.9,N
1545540335.9,286046999.9,N
1545540355.7,286047000.5,N
1545540375.6,286047000.2,N
1545540395.4,286047000.1,N
1545540415.2,286047000.7,N
1545540435.1,286047000.7,N
1545540436.0,286047000.7,N
1545540455.8,286046998.2,N
1545540475.7,286047000.5,N
1545540495.5,286047000.1,N
1545540515.3,286047000.0,N
1545540535.2,286046999.8,N
1545540555.0,286047002.6,N
1545540555.9,286047002.6,N
1545540575.7,286047002.6,N
1545540595.6,286046999.7,N
1545540615.4,286047000.3,N
1545540635.3,286046998.8,N
1545540655.1,286046998.5,N
1545540656.0,286046998.5,N
1545540675.8,286046998.7,N
1545540695.7,286046998.4,N
1545540715.5,286046999.2,N
1545540735.3,286046999.6,N
1545540755.2,286046999.6,N
1545540775.0,286046999.3,N
1545540775.9,286046999.3,N
1545540795.8,286046999.2,N
1545540815.6,286046999.1,N
1545540835.4,286046998.1,N
1545540855.3,286047000.0,N
1545540875.1,286047002.8,N
1545540895.8,286046999.8,N
1545540915.7,286047001.6,N
1545540935.5,286047003.8,N
1545540955.4,286047003.9,N
1545540975.2,286047002.0,N
1545540995.0,286047001.6,N
1545540995.9,286047001.6,N
1545541015.8,286047002.6,N
1545541035.6,286047002.2,N
1545541055.4,286047000.4,N
1545541075.3,286046998.6,N
1545541095.1,286046998.5,N
1545541115.9,286046998.2,N
1545541135.7,286047000.2,N
1545541155.5,286047001.0,N
1545541175.4,286047000.3,N
1545541195.2,286046999.8,N
